This is the latest recevied weather packets stored in our database for station/object K5NWZ. If no packets are shown the sender has not sent any weather packets the latest 10 day(s).
| Time | Temp. | Humidity | Pressure | Rain* | Wind** | Luminosity | Snow |
|---|---|---|---|---|---|---|---|
| 1788139683 | 70° F | 53% | 770.5 mmHg | 0 in | - | 5 W/m² | - |
| 1788139378 | 70° F | 52% | 770.5 mmHg | 0 in | - | 8 W/m² | - |
| 1788139077 | 70° F | 53% | 770.3 mmHg | 0 in | - | 11 W/m² | - |
| 1788138773 | 71° F | 54% | 770.5 mmHg | 0 in | - | 15 W/m² | - |
| 1788138468 | 71° F | 52% | 770.5 mmHg | 0 in | - | 21 W/m² | - |
| 1788138162 | 72° F | 51% | 770.3 mmHg | 0 in | - | 27 W/m² | - |
| 1788137858 | 73° F | 51% | 770.5 mmHg | 0 in | - | 33 W/m² | - |
| 1788137553 | 73° F | 50% | 770.3 mmHg | 0 in | - | 41 W/m² | - |
| 1788137249 | 72° F | 50% | 770.3 mmHg | 0 in | - | 42 W/m² | - |
| 1788136945 | 73° F | 49% | 770.5 mmHg | 0 in | - | 41 W/m² | - |
| 1788136640 | 73° F | 49% | 770.5 mmHg | 0 in | - | 39 W/m² | - |
| 1788136336 | 73° F | 48% | 770.5 mmHg | 0 in | - | 38 W/m² | - |
| 1788136035 | 73° F | 49% | 770.2 mmHg | 0 in | - | 50 W/m² | - |
| 1788135729 | 73° F | 48% | 770.5 mmHg | 0 in | - | 29 W/m² | - |
| 1788135426 | 73° F | 48% | 770.6 mmHg | 0 in | - | 37 W/m² | - |
| 1788135126 | 73° F | 47% | 770.7 mmHg | 0 in | - | 45 W/m² | - |
| 1788134823 | 74° F | 49% | 770.6 mmHg | 0 in | - | 56 W/m² | - |
| 1788134518 | 73° F | 47% | 770.8 mmHg | 0 in | - | 48 W/m² | - |
| 1788134216 | 74° F | 49% | 770.7 mmHg | 0 in | - | 40 W/m² | - |
| 1788133912 | 74° F | 47% | 770.7 mmHg | 0 in | - | 47 W/m² | - |
| 1788133606 | 75° F | 46% | 770.8 mmHg | 0 in | - | 68 W/m² | - |
| 1788133302 | 75° F | 46% | 770.8 mmHg | 0 in | - | 79 W/m² | - |
| 1788132998 | 75° F | 44% | 770.7 mmHg | 0 in | - | 89 W/m² | - |
| 1788132693 | 75° F | 43% | 770.6 mmHg | 0 in | - | 73 W/m² | - |
| 1788132389 | 75° F | 45% | 770.5 mmHg | 0 in | - | 81 W/m² | - |
* Rain latest hour (hover to see other rain measurements)
** Current wind speed in m/s (hover to see current wind gust speed)